• In United Kingdom
  • List of Countries
  • For 7 days
  • Water Temperature
  • Satellite Maps
  • Weather Map
  • Weather Widgets
  • user-avatar
    Login

    Hourly Weather Jalalabad

    Today, 19 February, Monday

    Time Temperature Precipitation Wind Pressure Humidity
    00:00 +14°C° 0 mm 1 mps 709 mmHg 35%
    01:00 +14°C° 0 mm 1 mps 709 mmHg 35%
    02:00 +14°C° 0 mm 1 mps 709 mmHg 35%
    03:00 +13°C° 0 mm 1 mps 709 mmHg 35%
    04:00 +13°C° 0 mm 1 mps 709 mmHg 35%
    05:00 +13°C° 0 mm 1 mps 709 mmHg 35%
    06:00 +13°C° 0 mm 1 mps 709 mmHg 35%
    07:00 +14°C° 0 mm 1 mps 709 mmHg 35%
    08:00 +14°C° 0 mm 1 mps 709 mmHg 34%
    09:00 +16°C° 0 mm 1 mps 710 mmHg 31%
    10:00 +19°C° 0 mm 1 mps 710 mmHg 28%
    11:00 +20°C° 0 mm 1 mps 710 mmHg 25%
    12:00 +21°C° 0 mm 1 mps 710 mmHg 26%
    13:00 +21°C° 0 mm 1 mps 710 mmHg 26%
    14:00 +22°C° 0 mm 1 mps 710 mmHg 26%
    15:00 +22°C° 0 mm 1 mps 710 mmHg 28%
    16:00 +21°C° 0 mm 1 mps 710 mmHg 29%
    17:00 +21°C° 0 mm 1 mps 709 mmHg 31%
    18:00 +20°C° 0 mm 1 mps 710 mmHg 34%
    19:00 +19°C° 0 mm 1 mps 710 mmHg 36%
    20:00 +18°C° 0 mm 1 mps 710 mmHg 39%
    21:00 +18°C° 0 mm 1 mps 710 mmHg 39%
    22:00 +16°C° 0 mm 1 mps 710 mmHg 39%
    23:00 +16°C° 0 mm 1 mps 710 mmHg 40%

    Tomorrow, 20 February, Tuesday

    Time Temperature Precipitation Wind Pressure Humidity
    00:00 +16°C° 0 mm 1 mps 710 mmHg 40%
    01:00 +15°C° 0 mm 1 mps 710 mmHg 41%
    02:00 +15°C° 0 mm 1 mps 709 mmHg 41%
    03:00 +15°C° 0 mm 1 mps 709 mmHg 41%
    04:00 +15°C° 0 mm 1 mps 709 mmHg 42%
    05:00 +15°C° 0 mm 1 mps 709 mmHg 42%
    06:00 +15°C° 0 mm 1 mps 709 mmHg 42%
    07:00 +16°C° 0 mm 1 mps 709 mmHg 42%
    08:00 +16°C° 0 mm 1 mps 710 mmHg 42%
    09:00 +18°C° 0.1 mm 1 mps 710 mmHg 39%
    10:00 +19°C° 0.1 mm 1 mps 710 mmHg 37%
    11:00 +20°C° 0.1 mm 1 mps 710 mmHg 35%
    12:00 +21°C° 0.3 mm 1 mps 710 mmHg 36%
    13:00 +21°C° 0.3 mm 1 mps 710 mmHg 37%
    14:00 +20°C° 0.3 mm 2 mps 709 mmHg 38%
    15:00 +20°C° 0.2 mm 2 mps 709 mmHg 39%
    16:00 +20°C° 0.2 mm 2 mps 709 mmHg 41%
    17:00 +20°C° 0.2 mm 2 mps 709 mmHg 43%
    18:00 +19°C° 0.2 mm 2 mps 709 mmHg 46%
    19:00 +18°C° 0.2 mm 2 mps 709 mmHg 49%
    20:00 +17°C° 0.2 mm 2 mps 709 mmHg 52%
    21:00 +17°C° 0.2 mm 2 mps 709 mmHg 53%
    22:00 +17°C° 0.2 mm 2 mps 709 mmHg 55%
    23:00 +17°C° 0.2 mm 2 mps 709 mmHg 56%

    Day after tomorrow, 21 February, Wednesday

    Time Temperature Precipitation Wind Pressure Humidity
    00:00 +16°C° 0.1 mm 2 mps 709 mmHg 58%
    01:00 +16°C° 0.1 mm 2 mps 709 mmHg 59%
    02:00 +15°C° 0.1 mm 2 mps 709 mmHg 60%
    03:00 +15°C° 0.1 mm 2 mps 709 mmHg 60%
    04:00 +15°C° 0.1 mm 2 mps 708 mmHg 60%
    05:00 +15°C° 0.1 mm 2 mps 708 mmHg 60%
    06:00 +15°C° 0.1 mm 2 mps 709 mmHg 60%
    07:00 +15°C° 0.1 mm 2 mps 709 mmHg 59%
    08:00 +15°C° 0.1 mm 2 mps 710 mmHg 59%
    09:00 +16°C° 0 mm 2 mps 710 mmHg 55%
    10:00 +17°C° 0 mm 2 mps 710 mmHg 51%
    11:00 +18°C° 0 mm 2 mps 710 mmHg 47%
    12:00 +19°C° 0 mm 2 mps 709 mmHg 45%
    13:00 +20°C° 0 mm 2 mps 709 mmHg 44%
    14:00 +20°C° 0 mm 2 mps 708 mmHg 42%
    15:00 +20°C° 0 mm 2 mps 708 mmHg 41%
    16:00 +20°C° 0 mm 2 mps 708 mmHg 41%
    17:00 +20°C° 0 mm 2 mps 708 mmHg 40%
    18:00 +20°C° 0 mm 1 mps 708 mmHg 42%
    19:00 +19°C° 0 mm 1 mps 709 mmHg 45%
    20:00 +18°C° 0 mm 1 mps 709 mmHg 47%
    21:00 +16°C° 0 mm 1 mps 709 mmHg 47%
    22:00 +16°C° 0 mm 1 mps 710 mmHg 47%
    23:00 +15°C° 0 mm 1 mps 710 mmHg 47%

    22 February, Thursday

    Time Temperature Precipitation Wind Pressure Humidity
    00:00 +15°C° 0 mm 1 mps 710 mmHg 47%
    01:00 +14°C° 0 mm 1 mps 709 mmHg 46%
    02:00 +14°C° 0 mm 1 mps 709 mmHg 46%
    03:00 +14°C° 0 mm 1 mps 709 mmHg 45%
    04:00 +13°C° 0 mm 1 mps 708 mmHg 44%
    05:00 +13°C° 0 mm 1 mps 708 mmHg 43%
    06:00 +13°C° 0 mm 1 mps 708 mmHg 42%
    07:00 +14°C° 0 mm 1 mps 709 mmHg 41%
    08:00 +14°C° 0 mm 1 mps 709 mmHg 39%
    09:00 +16°C° 0 mm 1 mps 709 mmHg 36%
    10:00 +18°C° 0 mm 1 mps 709 mmHg 33%
    11:00 +20°C° 0 mm 1 mps 709 mmHg 29%
    12:00 +21°C° 0 mm 1 mps 708 mmHg 29%
    13:00 +21°C° 0 mm 1 mps 708 mmHg 28%
    14:00 +22°C° 0 mm 1 mps 708 mmHg 27%
    15:00 +21°C° 0 mm 1 mps 707 mmHg 28%
    16:00 +21°C° 0 mm 1 mps 707 mmHg 28%
    17:00 +21°C° 0 mm 1 mps 707 mmHg 29%
    18:00 +20°C° 0 mm 1 mps 708 mmHg 31%
    19:00 +19°C° 0 mm 1 mps 708 mmHg 34%
    20:00 +18°C° 0 mm 1 mps 709 mmHg 36%
    21:00 +16°C° 0 mm 1 mps 709 mmHg 36%
    22:00 +16°C° 0 mm 1 mps 709 mmHg 36%
    23:00 +16°C° 0 mm 1 mps 709 mmHg 37%

    23 February, Friday

    Time Temperature Precipitation Wind Pressure Humidity
    00:00 +15°C° 0 mm 1 mps 709 mmHg 37%
    01:00 +15°C° 0 mm 1 mps 709 mmHg 37%
    02:00 +15°C° 0 mm 1 mps 709 mmHg 37%
    03:00 +15°C° 0 mm 2 mps 708 mmHg 37%
    04:00 +15°C° 0 mm 2 mps 708 mmHg 37%
    05:00 +15°C° 0 mm 2 mps 708 mmHg 36%
    06:00 +15°C° 0.1 mm 2 mps 709 mmHg 38%
    07:00 +15°C° 0.1 mm 2 mps 709 mmHg 39%
    08:00 +16°C° 0.1 mm 2 mps 710 mmHg 41%
    09:00 +16°C° 0.2 mm 2 mps 710 mmHg 41%
    10:00 +17°C° 0.2 mm 2 mps 710 mmHg 41%
    11:00 +17°C° 0.2 mm 2 mps 710 mmHg 41%
    12:00 +18°C° 0.1 mm 2 mps 710 mmHg 40%
    13:00 +20°C° 0.1 mm 1 mps 709 mmHg 39%
    14:00 +20°C° 0.1 mm 1 mps 709 mmHg 39%
    15:00 +20°C° 0 mm 1 mps 709 mmHg 39%
    16:00 +20°C° 0 mm 1 mps 708 mmHg 39%
    17:00 +20°C° 0 mm 1 mps 708 mmHg 39%
    18:00 +19°C° 0 mm 1 mps 709 mmHg 42%
    19:00 +19°C° 0 mm 1 mps 709 mmHg 45%
    20:00 +18°C° 0 mm 1 mps 709 mmHg 48%
    21:00 +16°C° 0 mm 1 mps 709 mmHg 48%
    22:00 +16°C° 0 mm 1 mps 710 mmHg 48%
    23:00 +16°C° 0 mm 1 mps 710 mmHg 49%

    24 February, Saturday

    Time Temperature Precipitation Wind Pressure Humidity
    00:00 +16°C° 0 mm 1 mps 709 mmHg 49%
    01:00 +15°C° 0 mm 1 mps 709 mmHg 49%
    02:00 +15°C° 0 mm 1 mps 709 mmHg 49%
    03:00 +15°C° 0 mm 2 mps 709 mmHg 49%
    04:00 +15°C° 0 mm 2 mps 709 mmHg 49%
    05:00 +15°C° 0 mm 2 mps 709 mmHg 48%
    06:00 +15°C° 0.1 mm 2 mps 709 mmHg 48%
    07:00 +15°C° 0.1 mm 2 mps 709 mmHg 47%
    08:00 +15°C° 0.1 mm 2 mps 710 mmHg 47%
    09:00 +16°C° 0.3 mm 1 mps 710 mmHg 46%
    10:00 +18°C° 0.3 mm 1 mps 710 mmHg 45%
    11:00 +18°C° 0.3 mm 1 mps 710 mmHg 44%
    12:00 +17°C° 0.4 mm 2 mps 710 mmHg 46%
    13:00 +17°C° 0.4 mm 2 mps 710 mmHg 47%
    14:00 +17°C° 0.4 mm 2 mps 710 mmHg 49%
    15:00 +17°C° 0.2 mm 2 mps 710 mmHg 50%
    16:00 +17°C° 0.2 mm 2 mps 710 mmHg 51%
    17:00 +16°C° 0.2 mm 2 mps 709 mmHg 52%
    18:00 +16°C° 0.1 mm 1 mps 710 mmHg 54%
    19:00 +15°C° 0.1 mm 1 mps 710 mmHg 55%
    20:00 +15°C° 0.1 mm 1 mps 711 mmHg 57%
    21:00 +14°C° 0 mm 1 mps 711 mmHg 57%
    22:00 +14°C° 0 mm 1 mps 711 mmHg 57%
    23:00 +13°C° 0 mm 1 mps 711 mmHg 58%
    Show more